ECMWFFLT1_sfc_dewp_096.txt.gz
Dewpoint
61 60 60 60 60 59 59 59 58 57 56 56 57 56 56 56 57 57 57 58 58 58 55 56 56 57 57 58 59 59 59 59 59 58 57 57 57 58 60 60 60 61 61 61 62 59 57 57 55 56 58 59 60 62 61 61 62 63 64 64 62 62 62
59 58 58 58 58 58 58 58 57 56 56 56 55 56 56 55 55 55 56 56 56 56 54 56 56 56 57 57 57 57 57 57 58 58 57 56 57 56 57 57 58 57 58 59 60 60 58 58 55 55 55 57 59 59 61 63 63 64 64 63 63 64 63
58 58 57 57 57 58 56 56 55 55 54 54 55 54 54 52 53 53 53 54 54 53 53 54 53 53 54 55 56 56 56 56 57 56 56 56 56 56 56 55 55 55 56 56 57 57 58 59 57 54 55 55 54 56 59 60 62 62 63 64 65 63 63
58 58 56 56 55 56 55 54 53 53 52 52 52 52 52 51 51 51 51 51 51 51 50 50 50 50 51 53 54 55 55 55 54 54 55 55 55 54 55 54 54 54 54 53 54 55 56 56 55 56 55 53 53 55 57 59 59 60 60 63 64 64 64
56 55 55 54 53 53 53 51 50 51 51 51 51 50 50 50 50 50 50 50 49 50 49 50 50 50 51 51 51 52 53 52 52 52 53 52 52 52 53 52 52 53 54 54 54 54 54 54 55 55 54 54 54 53 55 59 58 58 59 60 62 63 65
55 54 53 52 51 52 50 51 51 49 49 49 49 49 50 50 49 49 49 48 48 49 49 49 50 49 50 49 49 51 51 51 49 50 49 50 50 50 49 50 51 52 52 52 53 54 54 54 53 53 52 53 53 53 54 55 55 55 56 59 61 63 64
53 53 52 51 51 51 50 49 49 49 48 49 49 49 49 48 47 48 49 48 48 48 48 49 49 49 50 47 49 50 50 49 49 49 49 50 50 50 50 49 50 50 50 51 51 52 52 52 52 52 51 51 53 52 53 53 53 53 54 56 58 60 62
51 50 50 50 50 50 49 50 49 48 48 48 47 48 48 48 48 47 47 47 47 48 47 48 48 48 50 48 48 49 49 49 49 49 48 49 48 48 50 48 48 48 48 49 50 50 50 51 51 52 52 52 51 51 52 51 52 53 53 54 55 57 60
50 50 49 49 48 49 49 48 48 49 48 47 48 48 47 47 47 46 46 46 46 46 46 47 47 47 48 47 47 48 47 48 49 49 48 48 48 48 48 48 47 47 48 48 48 49 49 50 51 51 52 51 50 49 51 51 52 52 53 54 55 57 57
49 49 48 49 49 49 49 49 48 48 49 48 48 47 47 46 46 46 45 45 45 45 46 46 46 46 47 46 47 46 46 47 47 47 47 47 48 47 46 47 46 45 46 48 48 48 49 50 50 51 52 52 52 51 50 49 49 50 51 54 55 56 60
49 49 48 47 48 48 48 48 48 47 47 47 46 47 46 46 45 45 44 44 45 44 45 45 45 45 46 44 46 45 45 47 46 46 46 46 47 47 46 46 46 45 47 48 47 48 48 49 49 50 50 51 51 51 50 48 48 49 51 53 52 56 63
48 47 47 47 48 47 47 47 47 46 46 45 45 45 44 43 44 43 44 43 43 43 43 44 45 45 45 44 45 43 44 45 44 44 45 46 46 46 46 46 46 45 46 47 48 48 48 48 47 47 47 48 49 50 50 49 48 48 50 50 52 53 55
46 46 47 47 46 45 45 45 45 45 45 43 43 43 42 42 42 42 42 41 42 42 42 43 44 43 44 44 44 44 44 43 42 43 44 44 44 45 45 44 44 44 44 43 45 46 46 46 47 45 46 46 46 48 48 47 47 46 48 49 49 50 50
47 45 46 46 45 45 44 44 44 43 42 42 42 42 42 41 40 41 41 41 40 41 41 43 43 43 43 43 43 44 43 41 41 42 43 43 43 44 44 43 42 43 43 43 43 43 44 44 45 44 45 44 44 45 46 46 45 45 47 48 48 47 49
45 44 45 44 43 42 42 43 43 42 43 42 41 41 40 42 40 40 40 39 40 39 40 40 41 42 42 43 43 43 43 41 42 41 42 41 42 44 44 43 42 42 42 40 41 42 42 42 41 41 42 43 42 43 45 44 43 43 43 44 44 46 47
44 45 44 43 42 41 42 42 41 42 41 41 41 41 40 40 40 39 39 40 40 39 39 39 41 41 41 41 40 42 43 42 42 42 42 41 40 42 42 42 41 41 41 41 42 42 42 42 42 41 42 42 42 42 43 43 43 42 42 42 44 44 45
43 43 43 43 44 42 41 41 41 41 41 41 39 41 40 38 38 39 39 39 39 38 39 39 39 40 40 41 40 40 40 41 41 41 41 40 40 41 40 40 40 40 39 39 40 40 41 41 40 40 40 40 41 41 42 42 42 41 41 41 42 42 43
43 43 43 42 43 42 42 41 41 38 39 39 38 39 38 38 38 38 41 39 39 38 38 38 38 38 40 41 40 40 40 40 41 40 41 41 41 41 40 39 39 38 37 40 41 40 40 41 39 39 39 38 39 40 40 40 40 41 40 40 41 42 43
42 42 42 42 42 41 41 40 39 39 37 37 38 38 39 38 38 37 38 38 38 37 37 37 37 37 38 39 41 41 41 41 40 39 39 40 39 39 40 38 38 37 39 41 41 40 40 41 40 39 39 38 37 38 40 40 40 40 40 39 40 41 42
42 42 41 41 41 39 39 39 38 37 37 37 37 37 38 37 38 38 38 39 38 38 37 37 37 38 38 38 39 39 41 40 40 40 40 39 38 38 37 37 37 38 39 39 39 40 40 40 39 39 40 40 39 39 39 38 38 39 39 39 40 40 40
40 40 40 40 39 39 38 38 38 38 38 39 38 36 36 37 38 37 39 39 39 38 37 35 36 37 37 39 40 41 40 40 40 40 41 39 39 38 37 36 36 38 39 39 39 39 39 38 38 38 38 38 38 38 38 38 38 37 38 39 39 39 39
39 38 38 38 38 38 38 38 37 37 38 39 39 36 36 37 37 37 38 40 38 38 37 36 38 38 38 38 40 39 40 40 40 39 39 38 38 36 36 37 37 38 40 41 41 41 40 39 38 37 37 38 38 38 38 38 38 37 37 38 38 39 39
37 38 37 37 37 37 37 38 38 38 37 37 38 38 37 38 37 38 38 39 39 38 36 37 39 38 38 38 39 40 41 40 38 37 38 37 37 36 36 37 39 40 40 40 40 40 39 39 38 38 37 38 38 38 37 37 37 37 38 37 37 38 38
36 36 37 37 36 35 35 37 37 38 38 38 39 38 38 37 39 39 38 38 38 38 36 37 38 37 37 38 39 41 40 39 39 38 37 36 37 36 36 36 38 39 38 39 37 38 37 37 37 37 38 38 39 38 37 37 37 38 38 37 37 38 37
34 34 34 33 34 34 35 35 36 37 38 39 38 39 39 38 39 40 40 38 38 37 36 38 36 37 37 37 38 41 40 38 38 36 35 36 36 36 36 37 37 38 37 37 36 35 36 37 37 37 37 37 38 38 38 39 38 37 37 37 37 37 37
33 33 33 33 35 35 34 35 35 37 38 39 39 38 38 39 39 40 40 38 38 35 35 37 36 37 37 37 37 39 37 38 37 36 36 37 36 36 36 36 36 36 35 38 37 34 35 36 37 37 38 38 38 38 36 36 37 39 38 38 37 37 37
34 33 35 34 34 34 35 36 37 37 38 38 38 38 39 39 39 39 39 39 37 35 34 37 36 37 37 36 36 38 38 37 37 35 34 35 36 35 35 35 34 34 34 35 35 35 35 35 36 37 37 37 37 38 37 37 37 37 38 38 37 37 37
33 33 33 34 35 35 36 37 36 36 36 37 37 36 37 38 38 38 38 39 38 37 35 37 36 36 36 36 36 38 38 38 36 36 34 35 34 34 34 35 34 33 33 34 35 36 35 35 36 36 36 36 37 37 37 37 37 37 37 37 37 37 37
33 32 33 34 34 35 37 38 37 37 37 36 37 36 36 36 37 37 37 38 38 37 35 36 36 36 36 36 37 37 36 36 35 34 33 34 31 32 33 33 32 33 33 34 36 35 35 35 35 36 36 36 36 37 37 38 37 37 38 37 37 37 37
33 33 34 34 34 36 37 37 37 36 36 36 37 36 36 35 36 36 36 37 39 37 35 36 36 36 36 36 37 37 35 33 33 33 33 32 30 32 31 32 32 32 34 34 35 34 34 35 36 35 36 36 36 36 36 36 37 36 36 37 36 36 36
32 33 33 34 36 37 36 37 37 37 36 35 35 35 35 34 35 36 36 36 36 37 36 36 36 36 36 36 37 37 33 33 33 33 31 32 32 30 32 40 37 33 33 33 34 34 34 36 35 36 36 36 35 35 35 36 36 37 37 36 36 36 36
32 33 34 36 37 36 37 37 37 37 35 35 35 34 34 34 34 35 36 37 37 36 36 35 36 36 36 36 37 37 32 32 32 33 31 30 30 32 33 35 38 36 34 35 34 34 34 35 35 36 36 35 35 35 35 36 36 36 36 36 36 36 36
34 34 34 36 37 37 37 38 38 37 35 32 32 33 34 34 35 34 36 36 36 35 36 35 36 36 36 36 36 38 33 32 33 33 31 29 29 31 33 32 33 33 33 33 33 33 34 34 35 36 36 35 35 35 36 37 37 37 37 37 36 36 36
35 35 35 36 38 37 37 38 38 36 35 35 35 35 37 36 35 35 35 35 36 36 35 35 35 36 36 36 36 36 34 33 33 35 31 29 30 31 31 31 32 33 33 33 34 34 34 34 35 37 36 35 36 37 36 37 37 38 37 37 37 37 36
38 38 36 37 37 37 38 38 37 36 33 35 37 36 37 35 33 33 34 34 35 36 37 40 35 36 36 36 36 36 36 35 35 36 31 30 30 32 32 31 32 32 33 33 34 33 34 34 34 35 36 35 35 35 37 39 37 37 37 37 37 37 36
38 39 39 39 37 37 37 38 38 37 37 36 36 35 36 35 34 32 32 31 33 34 36 37 37 36 35 36 36 36 35 36 35 36 32 31 32 32 32 34 33 35 34 34 34 33 33 34 33 34 34 34 35 35 37 37 38 38 38 37 36 35 35
37 38 38 38 37 37 37 37 35 36 36 34 32 32 31 33 31 30 29 29 32 31 34 34 37 36 36 36 35 35 35 35 35 36 36 31 32 33 33 34 34 34 34 34 33 33 33 33 33 33 34 34 35 36 38 38 38 37 36 37 35 35 35

ECMWFFLT1_sfc_dewp_102.txt.gz
Dewpoint
62 61 61 61 60 60 59 58 57 56 55 54 55 53 54 54 55 55 55 56 55 55 55 54 56 56 56 56 56 56 55 56 54 53 52 51 51 51 52 52 52 53 52 53 53 51 50 48 49 50 52 52 52 53 55 53 53 54 53 53 52 54 65
61 60 60 59 59 60 59 58 57 55 56 55 54 54 54 53 54 54 54 54 54 54 53 53 54 55 55 54 54 54 54 54 53 54 52 51 51 50 50 50 50 50 50 50 50 49 48 47 47 47 47 49 50 51 51 52 52 51 51 52 52 53 54
60 60 60 59 59 58 56 57 56 56 54 55 55 53 54 51 53 53 53 53 53 53 54 53 53 54 54 52 54 54 53 53 53 53 52 51 51 51 50 50 49 49 49 48 48 47 47 47 46 46 46 46 46 47 49 50 49 50 50 51 52 51 53
59 60 59 58 57 57 55 55 54 54 55 54 54 54 53 52 52 52 52 52 52 53 53 52 52 53 53 52 53 53 53 52 52 52 51 51 50 50 49 49 49 48 48 47 46 47 46 45 45 45 45 44 44 45 47 48 49 48 49 49 49 50 60
59 58 58 57 55 53 54 54 54 55 54 54 54 53 52 52 52 52 52 51 51 52 51 51 52 52 51 50 51 51 51 52 52 52 50 50 49 49 49 49 50 50 50 48 48 48 47 46 45 44 43 44 44 44 45 46 46 46 44 46 47 46 48
58 56 55 55 54 55 54 53 53 53 53 52 52 51 51 51 51 51 51 50 50 51 51 50 50 50 50 48 48 49 51 50 49 51 50 50 50 49 48 49 49 49 47 47 47 48 48 47 46 43 43 43 42 42 42 42 41 41 42 44 43 43 45
56 56 55 53 54 54 53 53 53 52 51 51 51 51 51 50 49 49 50 49 49 49 49 50 50 49 49 44 47 49 49 50 49 49 49 50 50 49 49 48 47 47 46 46 46 46 45 45 43 43 42 42 42 41 41 40 40 39 40 40 40 41 42
55 54 54 54 54 53 53 52 52 51 51 50 50 50 50 51 50 49 48 48 49 49 49 49 49 49 50 46 47 50 49 49 49 49 48 48 48 47 48 48 48 47 45 46 46 46 45 45 44 43 42 40 39 40 39 38 38 38 38 38 39 39 38
53 53 53 53 53 54 52 52 51 51 50 50 49 49 49 49 49 48 47 47 48 49 48 47 47 47 48 49 47 48 48 48 48 47 47 47 47 48 48 48 46 46 44 46 45 46 45 46 44 43 42 40 39 37 38 37 37 37 38 37 38 38 38
53 52 52 52 52 52 52 51 51 50 50 50 49 49 49 49 49 49 48 48 48 48 48 47 46 46 47 48 47 46 47 48 48 47 47 47 47 48 47 46 44 45 43 45 45 45 46 45 44 42 42 41 41 38 37 36 37 37 37 37 37 38 39
51 51 51 50 51 51 51 50 50 49 49 48 47 48 49 48 48 47 48 47 47 47 47 47 46 46 47 48 47 46 46 47 46 47 46 46 47 46 47 45 43 44 43 45 43 44 44 43 42 41 41 41 41 39 38 37 36 37 37 38 37 37 38
50 50 50 50 50 48 47 48 48 48 49 49 48 48 48 46 48 47 47 45 46 45 46 46 47 47 46 47 47 47 45 46 46 46 46 46 45 45 45 44 43 43 42 43 42 42 42 41 41 40 40 40 40 39 38 38 35 36 38 37 38 38 38
47 48 49 49 47 46 46 46 46 47 48 47 48 47 45 44 45 44 44 43 44 44 44 45 45 45 47 46 46 46 44 44 43 44 44 44 44 44 43 41 42 42 42 41 41 41 40 40 40 39 39 39 38 38 39 37 36 35 37 37 37 37 37
48 47 47 47 47 47 46 46 46 46 45 46 46 46 44 42 41 42 41 42 41 42 42 44 45 46 46 45 45 45 43 43 42 43 44 42 42 42 42 40 39 40 41 41 40 40 39 38 38 38 39 38 37 37 37 36 35 35 36 37 38 37 37
47 46 47 47 46 45 45 46 46 45 45 45 44 42 42 44 42 41 40 39 40 40 40 41 43 44 44 45 45 44 44 43 43 42 44 40 41 43 42 40 39 40 40 40 39 38 37 37 36 36 36 37 36 37 37 36 35 35 34 36 36 37 37
45 46 46 46 45 44 45 45 44 44 43 43 43 43 43 43 41 39 39 39 38 38 38 39 42 42 43 43 43 44 44 44 43 42 41 40 39 40 40 40 38 40 41 39 38 38 38 37 37 36 35 35 35 36 36 36 36 35 34 35 36 36 36
46 45 45 45 45 44 43 44 43 43 42 43 41 44 42 41 41 40 39 37 37 36 37 38 39 40 41 43 43 42 42 43 42 41 41 40 40 39 39 39 39 39 39 38 37 37 36 36 36 35 35 35 35 35 36 36 36 35 34 35 35 35 36
45 45 45 45 45 44 43 43 43 39 42 41 41 42 42 41 40 38 39 36 36 36 36 37 39 40 41 43 43 44 42 42 42 41 41 41 40 39 38 38 38 38 38 37 37 35 35 36 36 36 35 34 34 36 37 36 36 35 34 34 35 35 36
44 44 43 44 43 43 43 42 42 42 40 40 41 41 42 41 39 36 35 35 36 36 36 38 38 39 40 42 44 45 44 43 43 40 40 40 38 38 38 37 38 37 37 36 35 36 37 37 36 35 35 35 35 35 36 36 35 35 34 35 35 35 35
44 44 44 44 44 41 42 43 40 40 41 41 41 41 41 40 40 37 36 36 36 37 37 37 37 38 39 40 41 43 43 43 42 42 40 39 38 38 38 38 39 38 36 36 36 37 37 36 36 35 36 36 35 36 36 35 35 36 36 35 35 35 35
42 42 42 41 40 42 41 41 41 41 41 42 41 40 41 41 41 38 37 37 37 37 37 36 37 37 37 38 40 42 43 43 42 40 42 40 41 41 38 38 38 37 37 37 39 37 37 35 35 35 35 36 36 36 36 36 36 36 36 36 35 35 35
42 41 40 41 41 41 41 41 40 40 41 42 44 40 40 40 38 37 36 37 36 36 37 37 38 38 38 38 38 41 43 41 41 40 40 41 42 40 39 39 41 36 42 42 41 41 40 40 37 35 35 36 37 36 36 37 37 36 36 36 35 35 35
38 39 39 39 39 40 39 41 41 41 41 41 42 42 41 40 36 36 36 35 36 37 36 38 38 38 38 38 38 40 42 43 42 42 40 40 42 40 41 38 40 40 42 41 41 38 37 38 38 38 36 36 36 37 37 37 36 35 35 34 34 35 35
37 37 38 39 39 37 38 40 40 41 41 42 43 43 43 40 37 36 34 34 35 35 36 36 38 36 36 37 38 40 41 43 41 41 39 37 40 36 38 35 36 37 38 39 39 37 36 36 36 37 38 39 41 40 37 36 35 35 35 35 35 34 35
35 36 36 34 36 37 39 39 40 41 42 43 43 44 44 42 40 38 36 34 34 34 35 38 36 36 36 36 37 39 42 42 42 43 39 37 40 37 37 37 37 39 37 38 36 33 34 36 36 36 37 38 38 38 37 37 36 34 35 35 34 34 34
33 35 35 35 37 37 38 38 39 40 41 42 43 42 42 43 42 40 37 34 33 32 33 37 36 36 36 36 36 38 41 43 43 42 42 38 40 39 40 39 37 38 36 38 37 33 32 33 36 37 38 38 37 37 35 35 36 37 35 35 34 34 35
34 34 35 35 37 36 37 38 41 41 41 42 41 41 42 43 43 41 38 36 34 32 34 37 35 36 36 35 35 37 43 44 43 41 42 36 38 41 39 39 37 37 34 35 35 34 33 33 34 35 35 35 35 36 36 36 36 36 37 36 35 35 36
33 34 35 36 37 36 38 40 39 40 40 40 40 40 41 42 43 42 40 37 35 34 37 35 35 35 35 35 36 40 40 40 41 40 42 39 37 41 38 40 39 37 34 34 35 34 34 34 34 35 33 33 34 34 33 34 34 34 35 36 36 36 37
34 35 36 36 37 37 39 39 39 40 40 40 40 40 40 40 42 42 42 38 36 35 36 35 35 35 35 35 36 41 37 37 39 38 39 38 33 40 38 38 39 37 34 33 35 35 35 35 34 33 33 33 33 34 33 35 35 36 37 36 37 36 36
36 35 36 36 36 38 39 39 41 41 40 40 39 39 39 38 38 40 41 39 37 36 36 36 35 35 35 35 37 39 36 34 36 37 37 38 35 40 41 39 38 37 34 32 34 33 34 35 34 33 33 33 33 34 31 32 34 35 36 37 36 36 36
34 36 36 36 38 40 40 41 40 41 40 40 39 39 39 37 36 37 40 40 39 37 37 38 35 35 35 36 37 38 35 33 35 35 36 38 36 38 38 42 38 37 33 32 34 33 34 36 33 33 33 33 33 32 30 30 32 34 35 36 35 35 36
34 36 36 38 39 39 39 40 41 42 41 39 40 38 38 38 38 37 38 40 43 40 38 38 35 35 35 36 37 37 36 33 33 34 35 36 36 35 38 41 41 37 34 34 33 34 34 35 34 33 33 33 33 31 29 30 30 31 33 33 32 33 35
36 36 36 39 39 40 40 41 43 41 41 36 35 36 37 38 39 38 39 40 41 42 40 39 37 35 36 36 36 38 36 34 32 33 34 34 34 33 35 33 35 34 33 33 33 33 34 34 33 33 34 33 33 30 30 30 33 33 34 31 31 33 36
39 38 38 39 40 40 41 43 44 43 40 39 40 42 41 40 40 40 40 40 39 42 42 40 39 35 35 35 36 36 36 35 34 33 34 33 33 33 31 31 33 35 33 34 34 34 34 34 34 35 35 34 32 32 32 31 32 37 30 30 32 34 36
40 41 39 40 40 40 41 41 41 40 39 42 43 44 44 40 40 40 40 41 41 42 40 45 40 36 34 34 35 36 37 36 37 36 34 32 33 34 32 31 33 34 34 34 34 34 34 34 34 37 34 31 32 32 32 34 34 28 28 29 31 34 36
40 41 41 41 40 40 42 42 43 42 41 42 42 42 43 43 42 41 41 41 42 41 41 39 36 39 34 34 34 35 34 34 35 40 35 33 34 33 32 33 34 36 34 34 34 34 34 34 34 32 31 31 31 32 34 30 28 28 27 28 31 35 37
40 40 41 40 40 40 41 41 40 41 41 40 40 39 39 39 40 41 40 42 40 40 41 39 36 36 37 33 34 34 33 33 34 36 36 35 34 33 33 33 34 33 34 34 34 34 33 33 30 31 31 31 31 33 30 28 26 28 29 29 32 35 36

ECMWFFLT1_sfc_dewp_105.txt.gz
Dewpoint
59 58 58 58 58 57 55 54 53 53 53 53 53 52 52 53 53 52 52 52 52 53 54 52 53 53 53 54 53 52 52 53 51 49 49 49 48 48 51 49 50 51 49 48 48 46 46 44 44 45 46 46 46 47 46 46 45 45 46 47 48 48 57
59 59 59 58 57 57 55 55 54 53 53 53 53 53 51 51 54 52 51 51 52 53 53 52 52 52 51 52 52 51 51 51 51 50 48 48 48 48 48 48 48 48 48 48 47 47 46 43 43 43 43 44 45 45 45 45 44 44 44 43 48 44 45
59 58 58 57 56 54 53 52 53 53 53 52 52 51 51 51 51 51 50 50 51 53 53 50 51 50 50 51 51 51 51 50 50 50 49 48 48 48 48 48 47 47 46 45 45 46 46 44 42 42 42 41 41 42 44 43 43 43 41 42 42 40 41
58 58 57 56 55 54 52 52 52 52 52 51 50 50 51 51 50 51 50 50 51 52 51 49 49 49 48 49 50 50 49 49 50 49 49 48 49 47 47 47 46 45 44 43 44 44 44 43 42 42 41 41 40 40 41 42 43 40 40 41 39 39 40
58 57 56 55 53 52 52 52 52 51 50 51 50 49 49 49 50 49 50 49 49 49 49 48 48 48 47 48 49 49 48 47 49 50 48 47 47 46 46 46 45 44 45 45 44 44 44 43 42 41 40 40 40 39 41 40 40 38 39 38 38 38 38
56 54 53 53 53 52 52 51 50 49 49 49 49 48 48 48 49 48 48 47 47 48 49 48 48 47 46 47 48 48 48 46 47 47 46 47 47 46 46 46 44 43 44 46 45 44 44 44 42 40 40 40 39 39 39 38 37 37 37 37 37 37 37
53 52 51 51 51 51 51 50 50 49 48 48 48 48 49 48 47 47 48 47 48 48 48 48 48 48 46 46 47 47 47 47 46 46 46 47 47 46 45 45 42 42 43 45 44 44 43 41 40 39 39 39 39 38 38 37 37 36 36 37 37 36 37
51 52 52 52 51 50 49 48 48 48 47 47 47 47 49 47 47 47 47 47 47 47 47 46 47 47 48 46 47 47 48 47 46 47 45 45 47 44 42 44 44 41 42 45 42 43 42 41 40 40 39 37 37 37 37 37 37 36 36 36 36 36 37
52 51 51 51 50 50 49 48 48 48 47 47 47 46 47 47 46 46 46 46 46 46 47 46 46 46 47 47 44 45 45 49 45 45 45 44 45 45 42 43 42 41 42 42 42 41 40 40 40 39 39 37 36 34 35 34 34 35 35 35 35 36 36
51 50 50 49 49 49 48 48 48 48 48 47 47 48 46 46 46 46 45 45 45 46 46 46 46 46 46 46 45 44 45 45 47 44 45 44 44 45 43 42 41 41 41 41 40 40 40 39 39 38 39 37 37 35 34 33 34 34 34 35 35 35 37
49 49 49 49 49 49 48 48 48 46 46 47 48 48 45 45 46 48 44 45 45 45 45 46 46 45 45 45 45 44 45 45 45 44 45 44 43 44 43 41 41 40 40 39 40 40 39 38 38 39 39 38 38 36 35 34 33 34 35 35 36 36 36
50 50 49 48 47 46 46 47 46 46 46 48 47 45 45 44 43 44 44 44 44 43 44 45 46 46 45 44 46 44 44 43 43 43 43 44 43 42 41 40 40 40 39 38 39 38 39 39 38 39 38 38 38 37 36 35 33 34 36 35 36 36 36
48 47 46 45 45 45 45 45 45 45 46 47 45 43 42 43 42 41 42 42 42 42 42 44 44 45 45 44 44 43 44 43 43 42 42 42 43 42 40 39 39 39 39 38 38 39 39 39 39 38 37 36 36 36 36 35 34 34 35 36 36 36 36
47 47 46 46 46 45 46 46 45 46 45 44 44 43 42 41 41 41 40 41 39 40 41 41 43 43 44 44 44 44 43 44 43 42 42 40 41 41 40 39 39 40 39 38 38 38 38 37 37 37 36 35 35 35 35 35 34 34 35 36 36 36 36
45 45 44 44 44 44 44 45 45 44 42 43 43 43 42 42 40 39 39 38 38 38 40 40 41 42 43 44 43 45 44 43 42 41 40 39 39 41 39 38 39 39 40 38 38 37 37 36 36 35 35 35 35 35 36 36 35 35 33 34 35 35 35
46 45 44 44 43 44 44 43 44 42 42 43 44 42 41 40 39 38 37 38 37 38 39 40 40 41 42 43 43 42 44 42 41 41 40 39 39 39 38 39 38 39 40 38 37 37 37 35 35 35 35 35 35 35 36 36 35 34 33 33 35 35 35
44 44 43 44 43 44 44 44 44 42 42 42 41 41 39 38 38 38 37 37 37 38 39 39 40 40 41 42 43 43 42 41 41 40 39 39 38 39 38 38 38 38 39 37 36 36 36 35 35 35 34 35 36 35 36 37 36 35 35 34 35 35 36
44 43 43 42 42 42 42 42 43 41 42 42 42 40 39 38 37 37 38 37 38 38 38 38 38 38 39 40 41 42 42 42 41 41 39 39 43 38 40 38 37 37 37 36 36 35 35 34 34 35 34 35 35 36 37 37 36 36 35 34 34 35 35
43 43 42 42 41 41 42 41 41 42 41 41 41 40 38 38 38 37 37 38 38 37 37 37 37 37 38 38 40 41 43 42 41 40 38 38 38 40 38 39 37 37 37 36 35 35 35 33 34 34 34 34 35 36 36 36 37 36 35 34 33 33 34
42 42 42 41 42 42 41 41 42 42 42 41 41 40 39 38 38 37 37 38 38 37 37 37 37 37 37 38 38 40 42 42 40 41 39 39 39 38 37 38 38 38 37 36 35 34 33 33 34 33 35 34 35 35 36 36 36 36 35 33 33 33 33
42 42 41 41 41 41 41 41 42 42 42 41 41 40 39 38 38 38 37 37 38 39 37 37 37 36 37 37 38 39 41 43 40 39 41 39 40 38 37 37 39 39 37 37 36 34 33 33 33 33 33 35 35 35 36 36 36 35 34 33 32 32 32
41 41 40 41 40 40 40 40 41 42 43 43 42 39 38 38 37 37 36 36 35 36 37 37 38 37 37 36 37 38 40 41 41 39 36 38 39 37 36 36 38 40 42 41 39 39 39 38 36 33 34 34 36 36 36 36 36 35 33 32 31 32 31
40 40 39 39 40 40 41 41 41 41 41 41 38 37 36 37 36 36 36 35 35 36 36 37 38 38 38 38 37 38 39 41 41 39 37 38 37 37 37 35 40 39 42 41 39 38 37 37 38 37 35 35 35 35 36 36 35 34 33 32 30 31 31
39 39 39 39 40 40 41 41 41 41 42 41 39 38 36 35 35 35 34 34 34 35 36 36 38 37 37 38 39 38 38 40 41 39 36 37 37 38 37 37 36 40 40 41 39 37 36 36 36 36 37 38 40 37 35 34 34 34 33 32 31 31 30
38 38 38 38 39 40 40 41 41 42 42 43 41 38 37 36 35 35 34 33 33 34 34 38 36 36 37 37 39 39 39 40 41 39 36 36 37 37 36 37 37 39 37 40 37 33 35 36 36 36 36 36 37 37 37 36 34 33 33 32 31 31 31
36 37 37 38 39 39 40 41 41 41 41 42 42 39 37 36 35 34 34 32 33 34 33 37 36 36 36 36 37 40 39 40 40 38 36 32 37 36 36 38 37 37 37 38 39 33 32 33 36 36 37 37 36 36 35 34 35 36 35 34 31 31 31
36 36 37 37 38 38 39 39 40 41 41 41 41 41 39 37 36 35 34 33 33 33 33 36 36 36 36 36 37 39 38 38 38 37 37 35 36 37 36 36 35 35 33 36 35 34 33 33 33 33 33 32 32 34 35 35 35 36 36 34 32 31 31
34 35 35 37 38 38 39 39 40 40 40 40 40 40 40 38 37 36 34 33 32 32 34 36 35 35 36 36 37 39 35 36 36 37 37 37 35 37 35 37 35 33 32 32 35 35 34 33 33 33 32 32 32 32 32 33 33 34 34 33 31 31 32
34 34 37 37 37 38 38 38 38 38 38 38 39 39 40 40 37 34 34 33 32 31 33 35 35 35 35 36 37 38 35 34 35 35 35 37 36 37 37 36 35 33 32 32 35 35 35 36 33 32 32 31 31 32 32 36 36 36 36 32 32 32 33
34 36 37 37 37 37 37 37 37 38 37 37 37 36 36 38 38 35 35 33 32 32 32 35 35 35 35 36 37 37 35 33 34 33 35 36 36 37 38 35 34 34 32 31 35 34 34 36 33 32 32 31 31 31 31 32 35 34 34 34 34 35 35
37 37 37 36 37 37 37 38 37 39 37 36 35 35 35 36 37 38 36 35 34 32 32 34 35 35 35 36 37 36 35 33 32 33 34 34 35 35 39 41 43 36 32 33 35 34 34 36 33 32 32 31 30 30 29 29 30 31 34 34 35 34 33
36 36 36 36 37 37 37 37 38 39 37 37 36 35 36 34 35 36 37 37 41 35 33 34 35 35 36 36 37 35 35 34 33 32 33 34 34 34 34 39 39 37 35 35 34 34 34 35 33 33 32 31 30 29 26 27 28 29 31 31 28 29 30
37 37 37 38 38 38 38 38 38 37 37 37 37 36 35 34 34 34 36 37 40 36 35 34 34 35 35 36 37 36 36 34 34 33 33 35 34 32 33 33 35 34 34 34 34 34 34 35 34 33 33 31 29 25 27 28 30 32 31 29 28 29 30
37 37 38 38 38 38 37 36 37 37 37 36 36 37 37 36 35 35 35 36 37 38 37 34 34 34 35 35 36 36 33 33 33 33 33 35 32 32 33 32 32 35 34 34 34 34 35 35 35 35 33 29 27 30 31 27 30 35 28 29 29 29 30
38 39 39 39 38 37 39 39 38 37 37 36 36 36 37 38 37 36 36 37 37 39 42 40 34 35 34 35 35 35 33 33 34 34 34 32 32 33 32 32 32 34 34 34 34 35 35 35 34 35 30 31 31 31 29 30 29 28 27 28 28 29 29
38 40 39 39 38 37 38 37 37 37 37 37 37 38 37 37 37 37 37 37 38 38 38 39 39 36 35 34 35 34 34 34 34 35 32 32 32 33 32 32 33 36 34 34 34 35 35 34 33 30 31 31 31 30 28 25 27 26 25 26 28 28 29
39 39 39 39 38 37 38 38 37 36 37 37 37 36 36 37 37 36 36 36 39 37 35 34 36 38 35 34 34 34 34 34 34 34 33 32 34 33 32 32 34 34 34 34 34 34 34 33 31 32 31 31 30 28 23 24 24 25 26 26 27 28 28

ECMWFFLT1_sfc_dewp_111.txt.gz
Dewpoint
56 54 54 53 53 53 51 51 50 50 50 50 50 51 51 52 51 51 51 51 51 51 51 49 49 49 49 49 49 48 49 48 45 44 44 44 43 43 47 44 45 45 43 43 42 41 40 35 33 36 37 37 38 40 40 37 38 39 39 38 36 36 37
55 54 54 54 52 52 50 50 49 49 49 50 49 49 50 51 52 50 50 49 49 50 52 49 49 48 48 47 47 46 46 46 46 45 44 44 44 43 43 43 43 42 41 41 41 41 39 33 33 33 33 35 35 37 38 37 37 38 39 36 37 37 39
55 54 53 52 51 50 49 49 48 48 48 48 48 49 49 49 49 49 49 49 49 50 50 47 47 46 47 47 47 46 45 45 45 44 43 43 43 43 43 42 41 41 39 39 39 39 38 38 34 32 33 33 32 34 38 35 36 36 38 35 35 35 36
54 53 52 51 49 49 48 48 47 47 47 47 48 48 48 48 49 50 48 48 48 52 48 47 46 46 46 45 45 45 45 44 43 42 43 43 42 42 41 41 40 40 39 38 37 38 37 35 34 32 33 33 34 34 34 35 38 35 36 35 35 35 35
53 52 51 49 49 48 48 47 47 47 46 47 47 46 47 47 48 47 49 47 47 46 46 46 47 46 46 45 45 45 44 44 43 43 41 41 41 40 40 39 38 38 38 37 38 38 37 36 35 33 33 33 35 35 35 34 36 34 36 34 34 35 35
53 51 50 50 49 47 47 46 46 45 45 45 46 46 46 47 47 46 46 46 46 47 47 46 46 46 45 45 44 44 44 43 42 42 41 41 41 39 39 39 38 37 37 38 38 37 37 37 35 34 34 34 32 32 32 33 33 33 34 34 34 35 35
52 51 50 49 48 47 47 46 46 45 45 45 45 45 46 46 46 47 46 46 46 47 47 46 46 46 45 44 43 43 43 43 42 41 40 41 40 40 39 38 38 38 38 38 38 38 37 36 35 35 35 33 33 32 32 32 32 31 32 33 34 34 34
52 51 50 49 48 47 46 46 46 46 45 45 45 46 47 46 46 46 45 45 45 45 45 45 45 45 45 45 44 44 43 42 41 41 39 39 39 38 39 39 40 39 39 39 38 38 38 38 37 37 35 32 32 31 30 32 31 31 32 32 33 33 33
53 50 50 49 47 46 46 45 45 45 45 46 45 45 45 45 44 44 45 44 44 44 45 44 44 44 43 43 43 43 43 44 40 39 39 38 38 38 38 38 38 38 39 39 39 38 38 38 38 37 37 34 33 29 31 30 29 30 32 31 33 33 33
49 48 47 46 46 46 45 45 45 45 45 45 45 45 44 44 44 44 44 44 44 44 44 44 44 43 43 42 42 42 42 42 41 39 39 38 38 38 38 38 38 38 38 38 37 39 38 38 37 37 37 35 35 32 31 31 30 31 31 32 32 32 33
48 47 46 46 46 46 46 46 45 45 45 46 46 45 43 43 44 47 43 43 44 44 44 43 43 43 43 42 42 42 42 42 41 41 41 39 39 40 40 38 38 37 38 36 36 37 37 37 36 36 36 36 36 33 32 32 32 33 32 33 33 33 33
47 46 46 46 46 45 44 44 45 45 45 45 44 42 41 41 42 42 42 42 42 43 43 44 44 43 42 42 42 41 41 41 40 40 39 40 39 39 38 38 37 37 37 36 36 35 36 37 36 36 36 36 36 35 34 34 33 34 34 34 34 35 34
47 46 46 45 44 44 45 45 43 42 42 43 41 41 40 41 41 41 41 41 42 42 42 43 43 43 42 41 41 40 40 40 39 39 38 39 39 38 38 38 38 37 36 35 35 35 35 36 37 36 36 36 36 35 36 34 33 33 35 35 35 35 35
46 46 45 44 44 44 45 44 42 42 41 40 39 39 39 40 40 41 41 42 41 41 41 42 42 42 42 40 40 40 40 39 39 39 40 38 39 38 39 37 37 37 36 34 35 35 35 34 35 35 36 35 35 35 35 34 34 34 34 35 35 35 35
45 45 44 44 44 44 43 42 42 40 39 39 39 39 39 40 40 40 40 40 40 40 40 41 41 42 41 41 40 40 39 39 38 38 38 37 38 39 37 37 37 36 36 35 35 34 34 34 34 34 34 35 34 35 35 35 34 34 32 33 33 34 34
44 44 43 43 43 42 42 41 41 39 38 39 39 38 39 39 39 39 39 39 39 39 39 39 40 41 41 40 39 39 39 38 38 38 37 37 37 37 37 38 36 36 36 33 34 34 35 33 35 33 33 34 34 34 34 35 34 33 32 32 33 33 33
43 43 42 42 42 41 41 40 40 38 38 38 38 39 38 38 38 38 38 38 38 38 38 38 39 40 40 40 39 38 38 38 38 38 38 37 37 36 36 35 35 35 35 33 33 33 33 33 33 33 33 33 33 33 34 35 35 34 33 33 32 32 33
42 42 42 42 41 40 39 39 39 38 38 38 38 38 39 38 37 37 37 37 37 37 37 38 38 39 39 39 40 39 38 38 38 38 38 39 42 37 37 35 35 35 33 31 32 31 32 32 32 34 32 32 33 33 34 34 34 34 33 32 32 32 32
41 41 41 41 41 40 39 39 38 39 38 37 37 37 37 38 38 36 36 36 36 36 36 37 37 38 38 39 40 39 40 39 38 38 37 38 37 37 37 35 35 35 33 31 31 32 32 32 33 33 32 32 32 33 33 33 33 33 32 31 31 30 30
41 42 42 41 41 40 38 38 38 38 39 37 37 37 37 37 38 36 36 36 36 36 36 36 36 36 37 37 38 39 39 39 38 37 37 37 37 37 37 36 36 35 33 32 32 31 32 33 34 33 35 33 33 33 33 32 32 32 31 30 30 30 29
41 41 41 41 40 39 38 38 38 38 38 36 36 36 36 36 37 36 36 37 37 38 36 36 35 35 36 36 38 38 39 39 38 37 37 37 37 37 37 37 37 36 35 34 34 34 34 34 34 34 33 34 34 34 33 33 32 31 30 30 29 28 29
41 42 41 40 40 39 39 38 38 38 37 37 38 36 35 34 34 34 35 35 36 36 37 37 37 36 36 36 36 38 38 39 38 37 36 35 35 35 36 38 37 37 41 39 40 42 41 39 37 35 34 34 35 34 32 32 31 30 29 29 28 28 28
41 41 40 40 40 40 39 38 38 37 36 36 36 36 35 34 33 33 34 34 35 36 37 37 40 40 42 37 36 38 39 39 38 37 37 35 35 36 35 36 42 43 38 41 42 41 38 38 39 38 37 35 34 34 33 32 30 30 30 29 27 27 27
40 40 40 41 40 39 38 38 37 36 36 36 36 37 33 33 33 33 33 34 35 36 36 37 39 38 39 41 38 38 38 38 36 36 37 35 34 38 35 35 35 39 41 40 40 40 37 37 37 37 38 38 38 35 33 31 29 30 30 28 28 28 27
39 40 41 41 40 38 37 36 35 35 34 34 34 33 32 32 33 33 34 34 34 35 35 39 38 38 38 39 40 39 37 37 37 35 34 35 35 37 35 35 35 35 35 38 38 35 37 37 37 37 36 36 36 35 35 34 32 29 28 28 27 27 26
39 40 40 40 39 36 35 34 34 33 32 33 32 31 31 32 32 32 33 33 34 34 34 38 37 37 37 37 38 38 37 37 37 35 35 35 35 35 34 37 36 35 34 38 39 34 34 34 37 37 36 36 35 35 33 33 33 34 31 29 27 26 26
39 40 40 39 38 35 34 33 33 33 34 33 31 31 31 31 32 32 32 33 33 33 34 38 37 37 36 36 37 37 35 35 35 35 35 35 35 34 34 35 33 34 34 33 33 35 35 34 34 33 31 30 30 32 33 32 32 31 32 30 27 26 27
39 40 40 39 38 36 35 35 34 34 32 31 31 30 30 30 32 34 32 32 33 33 34 37 36 36 36 36 36 36 35 35 35 34 34 34 34 35 35 35 34 34 34 33 35 37 35 34 34 32 30 30 29 28 27 26 26 27 29 28 27 27 28
39 40 40 39 38 38 37 36 35 34 33 32 32 32 32 33 32 31 31 31 32 31 32 36 36 36 36 36 36 35 34 34 33 33 33 34 34 34 34 35 35 35 34 32 36 36 36 37 33 30 30 29 28 27 26 31 31 32 32 29 28 29 29
39 39 40 39 39 38 38 37 36 36 33 32 31 31 31 31 31 30 31 30 31 29 31 35 36 36 36 36 35 33 32 34 32 32 32 33 33 33 33 37 36 34 33 33 36 35 35 38 32 30 29 29 27 26 25 26 31 31 31 32 32 32 32
39 39 39 39 39 39 38 38 37 37 32 32 30 30 31 31 30 31 30 29 31 31 29 34 36 36 36 37 36 32 31 32 30 31 31 32 33 32 33 39 39 34 34 34 36 35 35 37 31 30 29 28 25 24 24 26 27 28 30 31 31 31 31
39 39 39 39 39 39 38 38 38 37 34 32 31 33 35 31 30 30 29 30 38 32 29 33 36 36 36 37 36 31 32 31 30 29 30 31 31 32 32 35 38 37 35 36 35 35 35 35 31 30 29 27 25 24 25 27 26 26 26 25 25 27 28
39 39 38 39 39 39 39 39 38 37 36 34 34 35 35 32 31 30 32 33 35 31 30 30 35 35 36 36 37 33 31 30 30 29 29 34 32 31 31 32 36 35 35 35 35 35 35 34 31 31 28 26 26 25 28 27 29 28 26 26 25 26 27
38 38 38 38 38 39 38 38 37 37 36 36 35 35 35 33 32 32 32 33 32 30 32 29 33 35 35 36 36 35 29 29 28 28 28 31 28 29 31 31 32 35 35 35 35 35 35 34 34 33 29 27 28 32 31 27 27 31 26 27 27 27 27
38 39 39 38 38 38 38 37 37 37 36 36 36 35 35 35 33 32 32 33 33 31 35 40 30 35 35 35 35 35 32 32 32 30 30 28 28 29 30 30 32 35 35 35 35 35 35 34 33 33 29 32 32 32 30 31 27 26 26 26 25 26 26
38 39 38 38 37 37 37 37 36 36 36 36 36 35 34 33 32 32 32 33 33 33 32 36 38 35 35 35 35 35 35 33 34 37 29 28 28 30 29 31 34 36 35 35 35 35 34 34 33 30 32 32 32 31 31 27 28 26 25 25 26 25 25
38 38 38 37 37 36 36 36 36 35 35 36 35 35 33 33 32 32 33 33 35 34 33 33 38 38 35 35 35 35 35 34 35 33 33 29 29 30 31 30 34 34 35 35 35 34 34 34 31 32 32 32 32 31 29 27 26 26 26 25 25 25 25

ECMWFFLT1_sfc_dewp_114.txt.gz
Dewpoint
54 53 53 52 52 52 50 50 50 50 50 51 51 51 52 52 52 51 51 51 51 51 50 48 48 48 47 48 48 47 47 46 45 44 43 43 43 44 45 43 43 42 41 41 42 42 40 32 31 34 38 38 40 41 38 36 38 40 38 39 37 36 37
53 53 53 53 51 51 49 49 49 49 49 50 50 50 51 52 52 50 50 49 49 50 50 48 48 47 46 46 45 45 45 45 45 44 42 41 41 41 40 41 40 39 38 39 38 40 35 30 31 30 32 35 39 39 39 38 38 39 38 37 37 38 38
53 52 51 50 49 49 48 48 48 48 48 49 49 50 50 49 50 50 49 49 49 50 49 47 46 46 46 45 45 45 44 43 44 42 41 41 40 40 39 39 37 37 37 36 37 37 38 36 31 29 33 33 33 36 40 38 38 37 37 37 37 36 36
52 51 50 49 48 48 47 48 47 47 48 48 49 49 49 49 50 51 48 49 50 50 48 46 46 45 45 45 44 44 43 42 41 40 41 40 39 39 38 38 38 37 37 36 36 37 36 35 34 32 34 32 33 35 36 37 39 35 36 36 36 37 37
52 51 49 48 48 47 47 47 47 47 47 47 47 47 48 48 49 48 49 47 48 47 46 46 46 45 45 44 43 43 42 42 42 41 39 38 38 38 39 39 39 39 39 38 38 38 37 36 35 34 33 34 34 34 35 37 37 35 36 33 33 36 37
52 50 49 48 48 47 46 46 46 46 46 46 46 46 47 47 48 47 47 47 47 47 47 45 45 44 44 43 42 42 42 41 41 40 39 39 39 39 39 40 40 39 39 40 39 38 38 38 36 35 34 34 33 33 33 33 32 32 34 33 32 33 34
52 50 49 48 47 47 47 46 46 46 46 46 46 46 47 48 47 48 47 47 47 47 46 45 45 44 43 41 41 41 40 40 40 40 40 41 40 41 41 39 39 39 39 40 39 39 38 37 36 36 35 34 35 32 32 31 31 30 31 31 32 33 34
51 50 49 48 47 46 46 46 46 46 46 46 46 47 48 46 46 46 46 46 46 46 46 45 45 44 43 42 42 41 41 40 40 40 39 39 39 39 40 39 39 39 39 39 39 39 38 38 37 37 36 33 32 32 31 30 29 30 30 31 32 33 33
52 50 50 49 47 47 46 46 46 46 46 46 47 46 46 46 45 45 46 45 45 45 45 44 43 43 42 41 41 40 40 41 39 39 40 39 40 40 39 39 38 38 38 38 39 39 38 38 38 38 37 36 32 30 32 32 31 30 31 31 32 33 32
50 48 47 47 47 47 46 46 46 46 46 45 46 46 45 45 45 45 44 44 44 44 44 44 44 43 42 41 40 39 39 40 41 39 40 40 40 40 40 39 39 38 38 39 38 39 39 38 38 38 37 36 35 33 32 32 32 32 31 32 32 32 33
49 48 47 46 46 46 46 46 46 46 45 46 46 46 45 45 46 47 44 44 44 44 44 43 43 42 42 41 41 41 41 41 41 42 42 40 41 41 40 38 38 37 38 37 37 39 39 38 38 37 37 38 37 34 34 32 32 34 34 34 33 32 33
48 47 46 46 46 45 45 45 45 45 45 46 46 44 43 43 43 43 44 43 44 43 43 43 43 42 41 41 41 40 41 40 40 40 41 41 40 40 39 38 38 37 38 37 37 37 38 39 38 37 37 37 37 37 36 35 32 33 35 33 34 34 34
47 46 46 45 45 45 45 45 44 44 44 45 42 43 42 43 43 43 43 43 43 43 43 42 42 41 41 41 41 40 40 39 39 39 40 40 40 39 38 37 38 37 37 36 37 37 36 37 38 37 37 37 37 37 37 35 33 32 34 34 34 35 33
46 46 45 45 45 45 45 45 43 43 43 42 42 42 42 42 42 43 43 44 42 42 42 42 42 41 41 40 40 40 39 39 39 40 41 39 40 39 39 37 37 38 37 36 36 36 36 36 36 36 37 36 35 36 35 35 33 32 34 35 35 34 34
46 45 45 45 45 44 43 42 42 41 41 41 41 41 41 42 42 41 41 41 41 41 42 41 41 41 40 40 40 40 40 39 39 38 39 38 39 40 38 37 37 37 38 35 36 34 35 34 34 34 34 35 34 34 35 34 33 33 32 33 33 33 33
45 44 44 44 43 42 42 42 42 40 40 40 42 41 41 41 41 41 40 40 40 41 41 41 41 40 40 39 39 40 40 39 38 38 38 37 37 38 37 38 37 37 37 34 35 35 36 35 35 34 35 35 35 35 35 35 34 33 32 32 33 32 32
44 44 43 43 42 41 41 41 41 40 40 40 40 41 40 40 40 40 40 40 40 40 40 41 41 40 39 39 38 38 39 39 39 38 38 37 37 37 36 36 36 37 36 33 33 34 35 35 35 35 35 35 35 34 35 36 35 34 33 32 33 30 31
43 43 43 42 41 40 40 40 41 39 39 39 39 40 41 40 39 39 39 39 39 39 40 40 40 40 40 40 39 39 39 38 39 39 38 38 41 38 38 36 36 37 35 33 34 33 34 35 35 36 35 34 34 35 35 35 35 34 33 32 32 31 31
43 42 42 41 40 39 40 39 39 40 38 38 38 39 39 39 40 38 38 38 38 38 39 40 40 40 40 40 40 40 40 39 40 40 40 40 38 39 38 37 36 37 35 34 34 35 36 35 36 36 35 35 34 35 35 35 34 34 33 31 31 30 31
42 42 41 40 40 39 39 39 38 38 39 38 38 38 38 38 39 37 37 37 38 38 38 39 39 39 39 39 40 40 40 39 39 39 39 39 39 39 38 38 39 38 36 36 36 36 37 37 37 37 37 36 35 35 35 34 33 33 32 31 30 30 29
42 41 40 40 39 38 38 38 38 39 39 37 37 37 37 37 39 37 37 37 38 40 38 37 37 38 39 40 41 40 40 39 39 39 39 39 40 39 39 39 39 38 38 37 39 40 39 38 38 37 36 37 36 36 34 33 32 31 30 29 29 28 28
42 42 40 39 38 38 38 38 38 38 38 38 39 37 37 37 37 37 37 38 38 38 38 38 38 38 38 38 39 40 40 39 38 38 38 37 38 38 39 41 40 39 43 39 40 42 40 39 39 37 37 37 37 35 34 33 31 30 29 29 28 28 28
41 40 39 38 38 38 38 38 37 37 36 36 36 37 35 36 36 36 36 36 37 38 39 40 42 41 41 40 39 39 40 39 38 38 38 38 37 39 38 38 42 39 39 39 41 40 38 38 39 38 38 38 36 35 34 33 30 29 29 28 27 27 27
40 39 39 38 38 37 37 37 36 36 35 35 35 37 35 34 35 36 36 36 37 37 38 40 40 39 39 40 39 40 39 39 39 39 39 37 37 42 40 37 38 39 39 40 41 39 37 37 37 37 38 38 37 36 34 33 31 31 29 28 28 28 27
40 39 39 38 37 37 36 35 35 35 35 35 36 35 34 34 34 35 36 36 37 38 39 41 38 39 39 39 41 40 38 38 39 38 38 38 39 40 39 39 38 37 38 40 39 37 37 37 37 37 36 36 35 35 35 34 32 30 30 29 28 28 28
40 39 39 38 37 36 35 35 34 34 34 35 34 33 33 34 34 35 36 36 37 38 38 39 38 39 38 38 38 39 38 38 38 37 37 38 38 37 38 40 37 38 37 39 38 36 36 36 37 37 36 36 34 35 33 32 33 33 32 31 30 29 28
40 39 39 37 36 35 34 34 34 34 35 34 32 32 33 33 34 35 35 36 36 36 37 38 37 38 37 37 37 38 37 37 37 37 37 38 38 37 38 38 37 37 37 36 37 38 36 36 36 35 33 32 32 32 32 32 32 32 32 32 31 29 30
40 39 38 36 35 34 33 33 33 34 32 31 32 32 32 33 34 36 35 35 35 36 38 37 37 37 37 37 36 37 37 37 37 36 37 37 38 38 38 37 37 38 36 35 38 37 37 36 36 34 33 32 31 30 31 32 32 32 32 32 31 31 31
40 39 37 35 33 33 33 32 32 33 32 32 32 32 33 34 35 33 34 35 35 34 36 36 36 36 36 36 37 37 36 36 36 36 36 36 36 36 37 38 38 37 35 35 37 36 37 38 35 32 32 31 30 30 30 32 32 33 34 33 33 33 33
40 38 37 35 34 34 34 33 32 33 31 31 31 32 33 33 34 33 34 34 34 34 35 37 36 36 36 36 36 35 35 35 35 35 35 35 35 37 37 39 39 36 35 35 37 35 36 38 34 32 31 31 30 30 29 30 32 32 32 33 33 32 32
40 39 36 35 33 33 32 32 32 33 30 30 30 31 32 32 32 34 33 33 33 33 34 36 37 36 36 36 36 34 34 34 34 35 34 34 36 35 37 39 40 37 36 36 36 35 36 38 34 32 31 30 29 28 28 30 31 32 32 32 32 32 32
41 40 37 36 35 34 33 32 33 32 31 30 30 32 35 31 32 32 32 33 39 34 34 36 36 36 36 36 37 33 33 32 33 32 33 32 35 33 34 36 38 37 36 37 35 35 35 36 34 33 32 30 29 28 29 31 31 31 31 30 30 31 31
41 40 38 37 36 35 35 35 33 31 30 29 31 32 33 31 31 31 34 37 37 33 33 34 38 36 37 37 36 35 33 33 33 32 34 37 33 34 33 33 37 35 35 35 35 35 35 35 35 34 32 31 30 29 31 31 32 32 31 30 30 31 31
41 40 39 38 38 38 36 34 33 31 30 31 32 32 32 32 32 33 34 34 32 33 33 33 37 35 36 36 37 35 32 33 32 32 32 36 31 32 32 33 33 36 35 35 35 35 35 35 35 36 34 32 32 33 33 31 31 32 30 31 30 30 30
40 40 40 39 39 38 37 35 33 31 31 31 32 32 32 34 32 33 34 35 33 32 37 41 34 36 35 36 36 36 34 35 34 33 34 31 32 32 33 32 34 36 35 35 35 35 35 35 34 36 34 32 33 32 32 32 31 30 28 28 28 28 28
41 41 40 40 39 38 38 36 35 33 32 32 32 33 33 34 33 33 33 34 35 35 34 38 38 38 35 35 35 35 36 35 35 39 32 33 31 32 32 34 35 36 35 35 35 35 35 35 35 34 32 32 33 32 32 30 30 29 28 28 28 28 28
42 42 41 40 39 38 38 37 36 34 32 32 32 33 34 34 34 33 33 34 35 35 35 35 38 38 37 35 35 35 35 35 35 37 35 32 32 33 33 33 35 34 35 35 35 35 35 34 33 33 33 33 33 33 30 30 28 29 28 27 27 27 27